Content
SEND FEEDBACK

Daily
Averages
Monthly
Summary
Mexico

CANCUN, QUINTANA ROO


Home > North America > Mexico > Quintana Roo
Elevation: 9 meters     Latitude: 21 09N     Longitude: 086 49W

WEATHER
 
SELECT A DAY
Number of Records: 165,850;   Date Range: 1/1/95 - 9/30/14
 
SHARE

PRINT THIS DATA

[ ← Previous Day ]
WEATHER ALMANAC - 18 APRIL, 2013
[ Next Day → ]
[ °F ]   °C
Weather ElementAverageHighLow
Temperature27.7 °C30 °C (12:44 pm)26 °C (1:45 am)
Dewpoint23.1 °C24 °C (8:47 am)23 °C (1:45 am)
Humidity76.3 %83 % (1:45 am)66 % (12:44 pm)
Barometer1011.9 hPa1013.2 hPa (9:46 am)1010.8 hPa (4:41 pm)
Wind Speed24.1 km/h33.3 km/h (4:41 pm)
Weather ElementAverage
Visibility11.3 km
Wind DirectionSE (130.9 °)

Weather ElementTotal
Precipitation---
Cooling Degree Days9.7 (Base 18.3)
Growing Degree Days18 (Base 10)
Averaged from 23 records on 18 April, 2013
WEATHER CONDITIONS BREAKOUT
WIND DIRECTION BREAKOUT
WEATHER BY HOUR - 18 APRIL, 2013
[ °F ]   °C
Local TimeTemperatureDewpointHumidityBarometerVisibilityWind DirectionWind SpeedGust SpeedPrecipitationEventsConditions
1:45 AM26 °C23 °C83 %1012.9 hPa11.3 kmEast (100°)11.1 km/hClear
2:44 AM26 °C23 °C83 %1011.9 hPa11.3 kmSE (130°)14.8 km/hPartly Cloudy
3:44 AM26 °C23 °C83 %1011.5 hPa11.3 kmEast (100°)11.1 km/hScattered Clouds
4:48 AM26 °C23 °C83 %1011.2 hPa11.3 kmSE (140°)13 km/hScattered Clouds
5:45 AM26 °C23 °C83 %1011.5 hPa11.3 kmSE (130°)11.1 km/hScattered Clouds
6:44 AM26 °C23 °C83 %1012.2 hPa11.3 kmESE (110°)16.7 km/hScattered Clouds
7:50 AM27 °C23 °C79 %1011.9 hPa11.3 kmSE (140°)27.8 km/hScattered Clouds
8:47 AM28 °C24 °C79 %1012.9 hPa11.3 kmESE (120°)31.5 km/hMostly Cloudy
9:46 AM29 °C23 °C70 %1013.2 hPa11.3 kmSE (130°)25.9 km/hMostly Cloudy
10:41 AM29 °C24 °C74 %1012.9 hPa11.3 kmSE (140°)31.5 km/hMostly Cloudy
11:44 AM29 °C24 °C74 %1012.5 hPa11.3 kmSE (140°)29.6 km/hMostly Cloudy
12:44 PM30 °C23 °C66 %1012.5 hPa11.3 kmSE (140°)31.5 km/hMostly Cloudy
1:48 PM30 °C23 °C66 %1011.9 hPa11.3 kmSE (130°)27.8 km/hMostly Cloudy
2:40 PM30 °C23 °C66 %1011.2 hPa11.3 kmSE (130°)31.5 km/hMostly Cloudy
3:43 PM29 °C23 °C70 %1011.2 hPa11.3 kmSE (130°)29.6 km/hMostly Cloudy
4:41 PM29 °C23 °C70 %1010.8 hPa11.3 kmSE (140°)33.3 km/hMostly Cloudy
5:46 PM28 °C23 °C74 %1010.8 hPa11.3 kmSSE (150°)33.3 km/hMostly Cloudy
6:44 PM28 °C23 °C74 %1011.5 hPa11.3 kmSE (140°)25.9 km/hMostly Cloudy
7:41 PM27 °C23 °C79 %1011.5 hPa11.3 kmSE (140°)29.6 km/hMostly Cloudy
8:43 PM27 °C23 °C79 %1012.5 hPa11.3 kmSE (140°)22.2 km/hScattered Clouds
9:46 PM27 °C23 °C79 %1012.5 hPa11.3 kmSE (130°)22.2 km/hScattered Clouds
10:45 PM27 °C23 °C79 %1012.9 hPa11.3 kmSE (130°)22.2 km/hScattered Clouds
11:48 PM27 °C23 °C79 %1012.5 hPa11.3 kmSE (130°)22.2 km/hScattered Clouds
Hourly data recorded from MMUN, located 0 kilometers away from Cancun, Quintana Roo







STORIES FROM OUR PARTNERS